Jaffrey, NH

5:54 PM EST on January 17, 2018 (GMT -0500)
Jaffrey Airport-Silver Ranch

Weather History for KAFN - December, 2013

Change the Weather History Date:

Tuesday, December 17, 2013

  Actual Average Record
Temperature  
Mean Temperature -3 °F -  
Max Temperature 12 °F 33 °F 61 °F (2000)
Min Temperature -16 °F 18 °F -16 °F (2013)
Degree Days  
Heating Degree Days 68    
Moisture  
Dew Point 0 °F    
Average Humidity 81    
Maximum Humidity 85    
Minimum Humidity 73    
Precipitation  
Precipitation 0.27 in - - ()
Sea Level Pressure  
Sea Level Pressure 30.10 in    
Wind  
Wind Speed 2 mph (North)    
Max Wind Speed 6 mph    
Max Gust Speed -    
Visibility 4 miles    
Events Fog , Snow    
Averages and records for this station are not official NWS values.
T = Trace of Precipitation, MM = Missing Value Source: NWS Daily Summary

Daily Weather History Graph

Daily Weather History Graph

Search for Another Location

Airport or City:

Trip Planner

Search our weather history database for the weather conditions in past years. The results will help you decide how hot, cold, wet, or windy it might be!

Date:

Astronomy

Dec. 17, 2013 Rise Set
Actual Time 7:13 AM EST 4:15 PM EST
Civil Twilight 6:40 AM EST 4:47 PM EST
Nautical Twilight 6:05 AM EST 5:23 PM EST
Astronomical Twilight 5:30 AM EST 5:57 PM EST
Moon 4:54 PM EST 7:05 AM EST
Length of Visible Light 10h 06m
Length of Day
9h 02m
Full, 100% of the Moon is Illuminated
Dec 17
Full
Dec 25
Last Quarter
Jan 1
New
Jan 7
First Quarter
Jan 15
Full

Hourly Weather History & Observations

Time (EST) Temp. Windchill Dew Point Humidity Pressure Visibility Wind Dir Wind Speed Gust Speed Precip Events Conditions
12:52 AM -4.0 °F - -8.0 °F 83% 30.20 in 10.0 mi Calm Calm - N/A   Clear
1:52 AM -7.1 °F -15.9 °F -11.0 °F 83% 30.23 in 10.0 mi South 3.5 mph - N/A   Clear
2:52 AM -7.1 °F - -11.0 °F 83% 30.24 in 10.0 mi Calm Calm - N/A   Clear
3:52 AM -9.0 °F - -14.1 °F 79% 30.25 in 10.0 mi Calm Calm - N/A   Clear
4:52 AM -11.9 °F - -16.1 °F 82% 30.25 in 10.0 mi Calm Calm - N/A   Clear
5:52 AM -11.9 °F - -17.0 °F 78% 30.26 in 10.0 mi Calm Calm - N/A   Clear
6:52 AM -16.1 °F -26.2 °F -20.0 °F 82% 30.27 in 10.0 mi South 3.5 mph - N/A   Clear
7:52 AM -14.1 °F - -18.0 °F 82% 30.25 in 3.0 mi Calm Calm - N/A   Clear
8:15 AM -13.0 °F - -17.0 °F 82% 30.14 in 4.0 mi Calm Calm - N/A   Partly Cloudy
8:39 AM -9.9 °F - -15.0 °F 78% 30.16 in 1.8 mi Calm Calm - N/A   Haze
8:47 AM -9.4 °F - -14.8 °F 77% 30.17 in 3.0 mi Calm Calm - N/A   Partly Cloudy
8:52 AM -9.9 °F - -14.1 °F 82% 30.27 in 9.0 mi Calm Calm - N/A   Partly Cloudy
9:52 AM -0.0 °F - -4.0 °F 83% 30.25 in 10.0 mi Calm Calm - N/A   Overcast
10:52 AM 5.0 °F -2.1 °F -0.9 °F 76% 30.23 in 1.8 mi NNW 3.5 mph - 0.00 in Snow Light Snow
11:13 AM 6.1 °F - 1.9 °F 83% 30.13 in 2.0 mi Calm Calm - 0.00 in Snow Light Snow
11:23 AM 7.0 °F 0.1 °F 1.0 °F 77% 30.12 in 4.0 mi NNE 3.5 mph - 0.00 in Snow Light Snow
11:32 AM 7.0 °F -3.3 °F 1.0 °F 77% 30.11 in 2.0 mi North 5.8 mph - 0.00 in Snow Light Snow
11:36 AM 7.0 °F -1.7 °F 1.0 °F 77% 30.11 in 1.2 mi Variable 4.6 mph - 0.00 in Snow Light Snow
11:44 AM 7.0 °F -1.7 °F 1.0 °F 77% 30.10 in 1.0 mi Variable 4.6 mph - 0.00 in Snow Light Snow
11:49 AM 8.6 °F -1.3 °F 1.4 °F 73% 30.10 in 1.5 mi NNE 5.8 mph - 0.00 in Snow Light Snow
11:52 AM 8.1 °F 1.4 °F 1.0 °F 73% 30.19 in 1.5 mi Variable 3.5 mph - 0.00 in Snow Light Snow
11:58 AM 7.0 °F -1.7 °F 1.0 °F 77% 30.10 in 1.0 mi Variable 4.6 mph - 0.00 in Snow Light Snow
12:09 PM 7.0 °F -1.7 °F 1.0 °F 77% 30.10 in 0.8 mi Variable 4.6 mph - 0.00 in Snow Light Snow
12:27 PM 7.0 °F 0.1 °F 1.9 °F 80% 30.09 in 0.5 mi Variable 3.5 mph - 0.01 in Snow Snow
12:39 PM 8.1 °F -0.5 °F 1.9 °F 76% 30.09 in 0.8 mi North 4.6 mph - 0.01 in Snow Light Snow
12:52 PM 8.1 °F -2.0 °F 1.9 °F 76% 30.18 in 0.8 mi NNE 5.8 mph - 0.01 in Snow Light Snow
1:43 PM 8.1 °F 1.4 °F 3.0 °F 80% 30.05 in 1.0 mi Variable 3.5 mph - 0.01 in Snow Light Snow
1:52 PM 8.1 °F 1.4 °F 3.0 °F 80% 30.14 in 1.5 mi Variable 3.5 mph - 0.01 in Snow Light Snow
2:12 PM 9.0 °F 2.4 °F 3.9 °F 80% 30.04 in 2.0 mi NNE 3.5 mph - 0.00 in Snow Light Snow
2:22 PM 9.0 °F 0.6 °F 3.9 °F 80% 30.03 in 1.2 mi Variable 4.6 mph - 0.01 in Snow Light Snow
2:27 PM 9.0 °F 0.6 °F 3.9 °F 80% 30.03 in 1.0 mi Variable 4.6 mph - 0.01 in Snow Light Snow
2:35 PM 9.0 °F - 3.9 °F 80% 30.03 in 0.8 mi Calm Calm - 0.01 in Snow Light Snow
2:47 PM 8.6 °F 0.1 °F 5.0 °F 85% 30.02 in 0.5 mi North 4.6 mph - 0.02 in Fog , Snow Snow
2:52 PM 9.0 °F 0.6 °F 5.0 °F 84% 30.12 in 0.5 mi NNE 4.6 mph - 0.02 in Fog , Snow Snow
3:28 PM 9.0 °F 0.6 °F 5.0 °F 84% 30.02 in 0.2 mi North 4.6 mph - 0.02 in Fog , Snow Snow
3:52 PM 8.1 °F - 3.9 °F 83% 30.12 in 0.5 mi Calm Calm - 0.05 in Fog , Snow Snow
4:52 PM 8.1 °F 1.4 °F 3.9 °F 83% 30.12 in 0.5 mi Variable 3.5 mph - 0.05 in Fog , Snow Snow
5:49 PM 8.6 °F 0.1 °F 3.2 °F 79% 30.02 in 0.8 mi Variable 4.6 mph - 0.04 in Snow Light Snow
5:52 PM 8.1 °F -0.5 °F 3.9 °F 83% 30.12 in 0.8 mi North 4.6 mph - 0.05 in Snow Light Snow
6:20 PM 9.0 °F 0.6 °F 3.9 °F 80% 30.02 in 0.2 mi Variable 4.6 mph - 0.05 in Snow Heavy Snow
6:34 PM 8.1 °F - 3.9 °F 83% 30.02 in 0.8 mi Calm Calm - 0.06 in Snow Light Snow
6:52 PM 8.1 °F -0.5 °F 3.9 °F 83% 30.13 in 0.5 mi Variable 4.6 mph - 0.07 in Fog , Snow Snow
6:59 PM 8.1 °F 1.4 °F 3.9 °F 83% 30.02 in 1.0 mi Variable 3.5 mph - 0.01 in Snow Light Snow
7:09 PM 9.0 °F -0.9 °F 3.9 °F 80% 30.01 in 1.2 mi Variable 5.8 mph - 0.01 in Snow Light Snow
7:21 PM 9.0 °F 0.6 °F 3.9 °F 80% 30.01 in 1.2 mi Variable 4.6 mph - 0.01 in Snow Light Snow
7:48 PM 8.6 °F 2.0 °F 5.0 °F 85% 29.99 in 2.0 mi Variable 3.5 mph - 0.01 in Snow Light Snow
7:52 PM 9.0 °F -0.9 °F 5.0 °F 84% 30.09 in 2.5 mi North 5.8 mph - 0.01 in Snow Light Snow
8:08 PM 9.0 °F 0.6 °F 5.0 °F 84% 29.98 in 1.8 mi North 4.6 mph - 0.00 in Snow Light Snow
8:16 PM 9.0 °F 0.6 °F 5.0 °F 84% 29.98 in 2.0 mi Variable 4.6 mph - 0.00 in Snow Light Snow
8:46 PM 10.4 °F 4.0 °F 5.0 °F 79% 29.98 in 3.0 mi Variable 3.5 mph - 0.00 in Snow Light Snow
8:52 PM 10.0 °F 1.8 °F 5.0 °F 80% 30.08 in 4.0 mi Variable 4.6 mph - 0.00 in Snow Light Snow
8:59 PM 10.0 °F 1.8 °F 6.1 °F 84% 29.98 in 5.0 mi Variable 4.6 mph - 0.00 in Snow Light Snow
9:14 PM 10.0 °F 3.6 °F 6.1 °F 84% 29.98 in 10.0 mi Variable 3.5 mph - 0.00 in   Overcast
9:52 PM 10.9 °F - 6.1 °F 81% 30.07 in 10.0 mi Calm Calm - 0.00 in   Overcast
10:52 PM 10.9 °F 4.7 °F 7.0 °F 84% 30.03 in 10.0 mi Variable 3.5 mph - N/A   Overcast
11:52 PM 12.0 °F 5.9 °F 7.0 °F 80% 30.01 in 10.0 mi Variable 3.5 mph - N/A   Overcast